This demonstration page uses our WeatherBlox Daily Observations layout. Learn more.

Left ArrowRight Arrow

39.92423, -83.80882

Hourly Observations for March 12, 2021

Temp ( °F °C ) Dew Point ( °F °C ) Humidity (%) Winds ( mph kmh ) Pressure ( in mb ) Visibility ( mi km ) Precip ( " mm )
12:23 am 00:23 Cloudy 54 12 54 12 100 100 WNW 7 11 30.22 1023 10 16 N/A
12:56 am 00:56 Cloudy 51 10.6 51 10.6 100 100 NNW 10 17 30.23 1024 10 16 N/A
1:56 am 01:56 Partly Cloudy 47 8.3 45 7.2 93 93 NW 7 11 30.25 1025 10 16 N/A
2:56 am 02:56 Mostly Clear 44 6.7 43 6.1 96 96 N 9 15 30.26 1025 10 16 N/A
3:56 am 03:56 Clear 41 5 39 3.9 93 93 NNW 6 9 30.27 1025 10 16 N/A
4:56 am 04:56 Clear 39 3.9 37 2.8 93 93 N 5 7 30.30 1026 10 16 N/A
5:56 am 05:56 Clear 41 5 37 2.8 86 86 NNW 3 6 30.32 1027 10 16 N/A
6:56 am 06:56 Sunny 39 3.9 38 3.3 96 96 N N/A 30.34 1028 10 16 N/A
7:56 am 07:56 Sunny 40 4.4 39 3.9 97 97 N N/A 30.36 1028 10 16 N/A
8:56 am 08:56 Sunny 45 7.2 39 3.9 80 80 NNW 5 7 30.38 1029 10 16 N/A
9:56 am 09:56 Sunny 46 7.8 37 2.8 71 71 N 7 11 30.40 1029 10 16 N/A
10:56 am 10:56 Sunny 49 9.4 38 3.3 66 66 VRB 3 6 30.40 1030 10 16 N/A
11:56 am 11:56 Sunny 52 11.1 37 2.8 57 57 NW 8 13 30.39 1029 10 16 N/A
12:56 pm 12:56 Sunny 54 12.2 35 1.7 49 49 NW 12 19 30.39 1029 10 16 N/A
1:56 pm 13:56 Sunny 56 13.3 34 1.1 44 44 WNW 9 15 30.36 1028 10 16 N/A
2:56 pm 14:56 Sunny 57 13.9 32 undefined 39 39 NW 16 26 30.36 1028 10 16 N/A
3:56 pm 15:56 Sunny 57 13.9 31 -0.6 37 37 WNW 14 22 30.37 1029 10 16 N/A
4:56 pm 16:56 Sunny 56 13.3 29 -1.7 36 36 NW 14 22 30.37 1028 10 16 N/A
5:56 pm 17:56 Sunny 53 11.7 27 -2.8 37 37 NW 7 11 30.38 1029 10 16 N/A
6:56 pm 18:56 Clear 50 10 27 -2.8 41 41 NW 6 9 30.40 1029 10 16 N/A
7:56 pm 19:56 Clear 48 8.9 28 -2.2 46 46 NW 7 11 30.41 1030 10 16 N/A
8:56 pm 20:56 Clear 48 8.9 28 -2.2 46 46 NNW 9 15 30.41 1030 10 16 N/A
9:56 pm 21:56 Clear 46 7.8 29 -1.7 51 51 NNW 12 19 30.43 1030 10 16 N/A
10:56 pm 22:56 Clear 44 6.7 28 -2.2 53 53 NNW 13 20 30.44 1031 10 16 N/A
11:56 pm 23:56 Clear 41 5 20 -6.7 43 43 N 14 22 30.44 1031 10 16 N/A

Powered by AerisWeather